Weather History for Montpelier, VT

Change the Weather History Date:

Friday, October 10, 2014

  Actual Average Record
Temperature  
Mean Temperature 44 °F 48 °F  
Max Temperature 53 °F 58 °F 80 °F (1949)
Min Temperature 34 °F 37 °F 24 °F (1952)
Degree Days  
Heating Degree Days 21 17  
Month to date heating degree days 130 157  
Since 1 July heating degree days 514 512  
Cooling Degree Days 0 0  
Month to date cooling degree days 0 0  
Year to date cooling degree days 186 263  
Moisture  
Dew Point 35 °F    
Average Humidity 70    
Maximum Humidity 89    
Minimum Humidity 50    
Precipitation  
Precipitation T in 0.12 in 1.29 in (1971)
Month to date precipitation 1.47 1.18  
Year to date precipitation 28.11 29.10  
Sea Level Pressure  
Sea Level Pressure 30.09 in    
Wind  
Wind Speed 5 mph (West)    
Max Wind Speed 18 mph    
Max Gust Speed 25 mph    
Visibility 10 miles    
Events      
T = Trace of Precipitation, MM = Missing Value Source: NWS Daily Summary

Daily Weather History Graph

Daily Weather History Graph

Search for Another Location

Airport:

Trip Planner

Search our weather history database for the weather conditions in past years. The results will help you decide how hot, cold, wet, or windy it might be!

Date:

Astronomy

Oct. 10, 2014 Rise Set
Actual Time 6:58 AM EDT 6:14 PM EDT
Civil Twilight 6:29 AM EDT 6:43 PM EDT
Nautical Twilight 5:56 AM EDT 7:17 PM EDT
Astronomical Twilight 5:22 AM EDT 7:50 PM EDT
Moon 7:47 PM EDT (10/10) 9:21 AM EDT (10/10)
Length of Visible Light 12h 14m
Length of Day
11h 16m
Waning Gibbous, 94% of the Moon is Illuminated
Oct 10
Waning Gibbous
Oct 15
Last Quarter
Oct 23
New
Oct 30
First Quarter
Nov 6
Full

Hourly Weather History & Observations

Time (EDT) Temp. Windchill Dew Point Humidity Pressure Visibility Wind Dir Wind Speed Gust Speed Precip Events Conditions
12:51 AM 44.1 °F 39.5 °F 34.0 °F 68% 30.01 in 10.0 mi NW 8.1 mph - N/A   Clear
1:51 AM 43.0 °F 41.3 °F 33.1 °F 68% 30.01 in 10.0 mi WNW 3.5 mph - N/A   Clear
2:51 AM 37.0 °F - 32.0 °F 82% 30.03 in 10.0 mi Calm Calm - N/A   Scattered Clouds
3:51 AM 36.0 °F 32.1 °F 32.0 °F 86% 30.04 in 10.0 mi South 4.6 mph - N/A   Clear
4:51 AM 41.0 °F 38.0 °F 33.1 °F 73% 30.05 in 10.0 mi West 4.6 mph - N/A   Clear
5:51 AM 41.0 °F 36.4 °F 30.9 °F 67% 30.06 in 10.0 mi West 6.9 mph - N/A   Clear
6:51 AM 41.0 °F - 30.9 °F 67% 30.06 in 10.0 mi Calm Calm - N/A   Clear
7:51 AM 37.9 °F - 32.0 °F 79% 30.09 in 10.0 mi Calm Calm - N/A   Clear
8:51 AM 46.0 °F 41.9 °F 32.0 °F 58% 30.09 in 10.0 mi West 8.1 mph - N/A   Clear
9:51 AM 48.0 °F - 33.1 °F 56% 30.10 in 10.0 mi West 10.4 mph 20.7 mph N/A   Clear
10:51 AM 48.9 °F - 33.1 °F 54% 30.09 in 10.0 mi WNW 12.7 mph 19.6 mph N/A   Clear
11:51 AM 50.0 °F - 32.0 °F 50% 30.10 in 10.0 mi WNW 8.1 mph - N/A   Mostly Cloudy
12:51 PM 52.0 °F - 33.1 °F 49% 30.09 in 10.0 mi WSW 8.1 mph 16.1 mph N/A   Overcast
1:51 PM 51.1 °F - 34.0 °F 52% 30.08 in 10.0 mi WNW 6.9 mph 20.7 mph N/A   Scattered Clouds
2:51 PM 52.0 °F - 36.0 °F 54% 30.09 in 10.0 mi West 5.8 mph - N/A   Overcast
3:51 PM 51.1 °F - 36.0 °F 56% 30.10 in 10.0 mi WNW 6.9 mph - N/A   Overcast
4:51 PM 52.0 °F - 36.0 °F 54% 30.10 in 10.0 mi West 8.1 mph - N/A   Mostly Cloudy
5:51 PM 48.9 °F - 39.0 °F 69% 30.12 in 10.0 mi NW 6.9 mph - N/A   Overcast
6:51 PM 48.0 °F - 39.0 °F 71% 30.12 in 10.0 mi WSW 4.6 mph - 0.00 in   Overcast
7:51 PM 46.0 °F 44.8 °F 37.0 °F 71% 30.15 in 10.0 mi West 3.5 mph - N/A   Scattered Clouds
8:51 PM 46.0 °F 44.8 °F 37.0 °F 71% 30.15 in 10.0 mi SW 3.5 mph - N/A   Overcast
9:51 PM 45.0 °F - 37.9 °F 76% 30.16 in 10.0 mi Calm Calm - N/A   Overcast
10:51 PM 45.0 °F - 37.9 °F 76% 30.17 in 10.0 mi Calm Calm - N/A   Overcast
11:51 PM 45.0 °F - 39.0 °F 80% 30.17 in 10.0 mi Calm Calm - N/A   Overcast